This is the latest recevied weather packets stored in our database for station/object WX2NJ. If no packets are shown the sender has not sent any weather packets the latest 10 day(s).
| Time | Temp. | Humidity | Pressure | Rain* | Wind** | Luminosity | Snow |
|---|---|---|---|---|---|---|---|
| 1778028353 | 20° C | 62% | 1015.1 hPa | 0 mm | - | 0 W/m² | - |
| 1778028049 | 20° C | 62% | 1015.2 hPa | 0 mm | - | 0 W/m² | - |
| 1778027746 | 20° C | 61% | 1014.8 hPa | 0 mm | - | 0 W/m² | - |
| 1778027442 | 20° C | 61% | 1015 hPa | 0 mm | - | 0 W/m² | - |
| 1778027138 | 20° C | 61% | 1014.9 hPa | 0 mm | - | 0 W/m² | - |
| 1778026834 | 20° C | 61% | 1014.9 hPa | 0 mm | - | 0 W/m² | - |
| 1778026531 | 20° C | 61% | 1014.7 hPa | 0 mm | - | 0 W/m² | - |
| 1778026228 | 20° C | 60% | 1014.7 hPa | 0 mm | - | 0 W/m² | - |
| 1778025925 | 20° C | 60% | 1014.6 hPa | 0 mm | - | 0 W/m² | - |
| 1778025623 | 20° C | 60% | 1014.5 hPa | 0 mm | - | 0 W/m² | - |
| 1778025321 | 20° C | 59% | 1014.5 hPa | 0 mm | - | 0 W/m² | - |
| 1778025017 | 20.56° C | 58% | 1014.4 hPa | 0 mm | - | 0 W/m² | - |
| 1778024714 | 20.56° C | 58% | 1014.6 hPa | 0 mm | - | 0 W/m² | - |
| 1778024411 | 20.56° C | 58% | 1014.3 hPa | 0 mm | - | 1 W/m² | - |
| 1778024109 | 20.56° C | 58% | 1014.3 hPa | 0 mm | - | 2 W/m² | - |
| 1778023806 | 20.56° C | 57% | 1014.4 hPa | 0 mm | - | 5 W/m² | - |
| 1778023504 | 20.56° C | 57% | 1014.4 hPa | 0 mm | - | 7 W/m² | - |
| 1778023201 | 21.11° C | 56% | 1014.2 hPa | 0 mm | - | 12 W/m² | - |
| 1778022898 | 21.11° C | 56% | 1014.3 hPa | 0 mm | - | 21 W/m² | - |
| 1778022596 | 21.11° C | 56% | 1014.4 hPa | 0 mm | - | 26 W/m² | - |
| 1778022293 | 21.11° C | 55% | 1014.3 hPa | 0 mm | - | 29 W/m² | - |
| 1778021989 | 21.67° C | 55% | 1014.1 hPa | 0 mm | - | 34 W/m² | - |
| 1778021687 | 21.67° C | 54% | 1014.1 hPa | 0 mm | - | 38 W/m² | - |
| 1778021383 | 21.67° C | 54% | 1014 hPa | 0 mm | - | 42 W/m² | - |
| 1778021080 | 21.67° C | 54% | 1014 hPa | 0 mm | - | 45 W/m² | - |
* Rain latest hour (hover to see other rain measurements)
** Current wind speed in m/s (hover to see current wind gust speed)